• In Hungary
  • List of Countries
  • For 7 days
  • Water Temperature
  • Satellite Maps
  • Weather Map
  • News
  • Weather Widgets
  • user-avatar
    Login

    Hourly Weather Konarevka

    Today, 15 November, Thursday

    Time Temperature Precipitation Wind Pressure Humidity
    00:00 -7°C° 0 mm 1 mps 757 mmHg 51%
    01:00 -7°C° 0 mm 1 mps 757 mmHg 50%
    02:00 -7°C° 0 mm 1 mps 757 mmHg 50%
    03:00 -7°C° 0 mm 1 mps 757 mmHg 49%
    04:00 -7°C° 0 mm 1 mps 757 mmHg 50%
    05:00 -7°C° 0 mm 1 mps 757 mmHg 50%
    06:00 -7°C° 0 mm 1 mps 757 mmHg 50%
    07:00 -7°C° 0 mm 1 mps 757 mmHg 50%
    08:00 -7°C° 0 mm 1 mps 758 mmHg 49%
    09:00 -6°C° 0 mm 1 mps 758 mmHg 48%
    10:00 -4°C° 0 mm 1 mps 758 mmHg 44%
    11:00 -3°C° 0 mm 1 mps 758 mmHg 43%
    12:00 -2°C° 0 mm 1 mps 758 mmHg 42%
    13:00 -2°C° 0 mm 1 mps 758 mmHg 41%
    14:00 -2°C° 0 mm 1 mps 758 mmHg 44%
    15:00 -3°C° 0 mm 1 mps 758 mmHg 48%
    16:00 -3°C° 0 mm 1 mps 758 mmHg 51%
    17:00 -6°C° 0 mm 2 mps 759 mmHg 51%
    18:00 -6°C° 0 mm 2 mps 759 mmHg 51%
    19:00 -7°C° 0 mm 2 mps 759 mmHg 52%
    20:00 -7°C° 0 mm 2 mps 759 mmHg 51%
    21:00 -7°C° 0 mm 2 mps 759 mmHg 51%
    22:00 -7°C° 0 mm 2 mps 759 mmHg 50%
    23:00 -7°C° 0 mm 2 mps 759 mmHg 50%

    Tomorrow, 16 November, Friday

    Time Temperature Precipitation Wind Pressure Humidity
    00:00 -7°C° 0 mm 2 mps 759 mmHg 50%
    01:00 -7°C° 0 mm 2 mps 760 mmHg 50%
    02:00 -7°C° 0 mm 2 mps 760 mmHg 50%
    03:00 -8°C° 0 mm 2 mps 760 mmHg 50%
    04:00 -8°C° 0 mm 2 mps 760 mmHg 50%
    05:00 -8°C° 0 mm 2 mps 760 mmHg 49%
    06:00 -8°C° 0 mm 2 mps 760 mmHg 49%
    07:00 -8°C° 0 mm 2 mps 760 mmHg 49%
    08:00 -7°C° 0 mm 2 mps 760 mmHg 48%
    09:00 -6°C° 0 mm 1 mps 760 mmHg 47%
    10:00 -4°C° 0 mm 1 mps 760 mmHg 47%
    11:00 -3°C° 0 mm 1 mps 760 mmHg 45%
    12:00 -2°C° 0 mm 1 mps 760 mmHg 44%
    13:00 -1°C° 0 mm 1 mps 760 mmHg 42%
    14:00 -2°C° 0 mm 1 mps 760 mmHg 45%
    15:00 -3°C° 0 mm 1 mps 759 mmHg 48%
    16:00 -3°C° 0 mm 1 mps 759 mmHg 51%
    17:00 -4°C° 0 mm 1 mps 759 mmHg 52%
    18:00 -4°C° 0 mm 1 mps 759 mmHg 52%
    19:00 -6°C° 0 mm 1 mps 759 mmHg 52%
    20:00 -6°C° 0 mm 1 mps 759 mmHg 52%
    21:00 -6°C° 0 mm 1 mps 758 mmHg 53%
    22:00 -6°C° 0 mm 1 mps 758 mmHg 53%
    23:00 -6°C° 0 mm 1 mps 758 mmHg 52%

    Day after tomorrow, 17 November, Saturday

    Time Temperature Precipitation Wind Pressure Humidity
    00:00 -6°C° 0 mm 1 mps 757 mmHg 51%
    01:00 -6°C° 0 mm 1 mps 757 mmHg 51%
    02:00 -6°C° 0 mm 1 mps 757 mmHg 50%
    03:00 -6°C° 0 mm 1 mps 756 mmHg 49%
    04:00 -6°C° 0 mm 1 mps 756 mmHg 48%
    05:00 -7°C° 0 mm 1 mps 756 mmHg 48%
    06:00 -8°C° 0 mm 2 mps 755 mmHg 47%
    07:00 -8°C° 0 mm 2 mps 755 mmHg 47%
    08:00 -7°C° 0 mm 2 mps 754 mmHg 46%
    09:00 -6°C° 0 mm 2 mps 754 mmHg 44%
    10:00 -6°C° 0 mm 2 mps 754 mmHg 43%
    11:00 -5°C° 0 mm 2 mps 753 mmHg 42%
    12:00 -5°C° 0 mm 3 mps 752 mmHg 40%
    13:00 -4°C° 0 mm 3 mps 752 mmHg 39%
    14:00 -5°C° 0 mm 3 mps 751 mmHg 41%
    15:00 -5°C° 0 mm 3 mps 751 mmHg 44%
    16:00 -5°C° 0 mm 2 mps 751 mmHg 47%
    17:00 -5°C° 0 mm 2 mps 750 mmHg 48%
    18:00 -5°C° 0 mm 2 mps 750 mmHg 48%
    19:00 -6°C° 0 mm 2 mps 750 mmHg 49%
    20:00 -6°C° 0 mm 2 mps 749 mmHg 50%
    21:00 -6°C° 0 mm 2 mps 749 mmHg 51%
    22:00 -6°C° 0 mm 2 mps 749 mmHg 52%
    23:00 -6°C° 0 mm 2 mps 749 mmHg 52%

    18 November, Sunday

    Time Temperature Precipitation Wind Pressure Humidity
    00:00 -6°C° 0 mm 2 mps 749 mmHg 53%
    01:00 -6°C° 0 mm 2 mps 748 mmHg 53%
    02:00 -6°C° 0 mm 2 mps 748 mmHg 53%
    03:00 -6°C° 0 mm 2 mps 748 mmHg 53%
    04:00 -6°C° 0 mm 2 mps 748 mmHg 53%
    05:00 -6°C° 0 mm 2 mps 748 mmHg 52%
    06:00 -6°C° 0 mm 2 mps 748 mmHg 51%
    07:00 -6°C° 0 mm 2 mps 748 mmHg 50%
    08:00 -6°C° 0 mm 2 mps 748 mmHg 48%
    09:00 -5°C° 0 mm 2 mps 748 mmHg 46%
    10:00 -5°C° 0 mm 2 mps 748 mmHg 44%
    11:00 -4°C° 0 mm 2 mps 748 mmHg 42%
    12:00 -3°C° 0 mm 2 mps 748 mmHg 40%
    13:00 -2°C° 0 mm 2 mps 748 mmHg 37%
    14:00 -3°C° 0 mm 2 mps 748 mmHg 39%
    15:00 -3°C° 0 mm 2 mps 748 mmHg 41%
    16:00 -4°C° 0 mm 2 mps 748 mmHg 43%
    17:00 -5°C° 0 mm 2 mps 748 mmHg 43%
    18:00 -5°C° 0 mm 2 mps 749 mmHg 42%
    19:00 -3°C° 0 mm 1 mps 749 mmHg 42%
    20:00 -4°C° 0 mm 1 mps 749 mmHg 42%
    21:00 -4°C° 0 mm 1 mps 749 mmHg 41%
    22:00 -4°C° 0 mm 1 mps 749 mmHg 41%
    23:00 -4°C° 0 mm 1 mps 749 mmHg 40%

    19 November, Monday

    Time Temperature Precipitation Wind Pressure Humidity
    00:00 -5°C° 0 mm 0 mps 749 mmHg 40%
    01:00 -5°C° 0 mm 0 mps 749 mmHg 40%
    02:00 -5°C° 0 mm 0 mps 749 mmHg 40%
    03:00 -5°C° 0 mm 0 mps 750 mmHg 40%
    04:00 -6°C° 0 mm 0 mps 750 mmHg 40%
    05:00 -6°C° 0 mm 0 mps 750 mmHg 40%
    06:00 -6°C° 0 mm 0 mps 750 mmHg 40%
    07:00 -6°C° 0 mm 0 mps 750 mmHg 40%
    08:00 -5°C° 0 mm 0 mps 750 mmHg 40%
    09:00 -3°C° 0 mm 1 mps 751 mmHg 40%
    10:00 -3°C° 0 mm 1 mps 751 mmHg 40%
    11:00 -2°C° 0 mm 1 mps 751 mmHg 40%
    12:00 -1°C° 0 mm 1 mps 751 mmHg 40%
    13:00 0°C° 0 mm 1 mps 751 mmHg 40%
    14:00 -3°C° 0 mm 2 mps 751 mmHg 42%
    15:00 -4°C° 0 mm 2 mps 751 mmHg 45%
    16:00 -5°C° 0 mm 2 mps 751 mmHg 48%
    17:00 -5°C° 0 mm 2 mps 751 mmHg 50%
    18:00 -5°C° 0 mm 2 mps 751 mmHg 52%
    19:00 -6°C° 0 mm 2 mps 751 mmHg 55%
    20:00 -6°C° 0 mm 2 mps 751 mmHg 58%
    21:00 -7°C° 0 mm 3 mps 751 mmHg 61%
    22:00 -7°C° 0 mm 3 mps 751 mmHg 65%
    23:00 -7°C° 0 mm 3 mps 751 mmHg 68%

    20 November, Tuesday

    Time Temperature Precipitation Wind Pressure Humidity
    00:00 -7°C° 0 mm 3 mps 751 mmHg 71%
    01:00 -8°C° 0 mm 3 mps 751 mmHg 73%
    02:00 -8°C° 0 mm 3 mps 751 mmHg 76%
    03:00 -7°C° 0 mm 2 mps 751 mmHg 78%
    04:00 -7°C° 0 mm 2 mps 751 mmHg 81%
    05:00 -7°C° 0 mm 2 mps 751 mmHg 83%
    06:00 -7°C° 0 mm 2 mps 751 mmHg 85%
    07:00 -7°C° 0 mm 2 mps 751 mmHg 88%
    08:00 -6°C° 0 mm 2 mps 751 mmHg 87%
    09:00 -6°C° 0 mm 2 mps 751 mmHg 86%
    10:00 -5°C° 0 mm 2 mps 751 mmHg 85%
    11:00 -5°C° 0 mm 2 mps 751 mmHg 83%
    12:00 -4°C° 0 mm 2 mps 751 mmHg 81%
    13:00 -3°C° 0 mm 2 mps 751 mmHg 78%
    14:00 -2°C° 0 mm 1 mps 751 mmHg 82%
    15:00 -2°C° 0 mm 1 mps 751 mmHg 85%
    16:00 -2°C° 0 mm 1 mps 751 mmHg 88%
    17:00 -3°C° 0 mm 1 mps 751 mmHg 89%
    18:00 -3°C° 0 mm 1 mps 751 mmHg 91%
    19:00 -3°C° 0 mm 1 mps 751 mmHg 92%
    20:00 -3°C° 0 mm 1 mps 751 mmHg 92%
    21:00 -3°C° 0 mm 1 mps 751 mmHg 93%
    22:00 -3°C° 0 mm 1 mps 751 mmHg 93%
    23:00 -3°C° 0 mm 1 mps 751 mmHg 93%
    Show more